This demonstration page uses our WeatherBlox Daily Observations layout. Learn more.

Left ArrowRight Arrow

39.92423, -83.80882

Hourly Observations for August 25, 2021

Temp ( °F °C ) Dew Point ( °F °C ) Humidity (%) Winds ( mph kmh ) Pressure ( in mb ) Visibility ( mi km ) Precip ( " mm )
12:56 am 00:56 Clear 73 23 N/A N/A Calm 30.06 1018 10 16 0.00 0.00
1:56 am 01:56 Clear 72 22 N/A N/A Calm 30.07 1018 10 16 0.00 0.00
2:56 am 02:56 Clear 72 22 N/A N/A S 3 6 30.06 1018 10 16 0.00 0.00
3:56 am 03:56 Clear 72 22 N/A N/A SSW 6 9 30.08 1019 10 16 0.00 0.00
4:56 am 04:56 Partly Cloudy 73 23 N/A N/A S 6 9 30.06 1018 10 16 0.00 0.00
5:56 am 05:56 Clear 72 22 N/A N/A N 7 11 30.06 1018 10 16 0.00 0.00
6:56 am 06:56 Clear 72 22 N/A N/A Calm 30.08 1019 7 11 0.00 0.00
7:56 am 07:56 Mostly Sunny 73 23 N/A N/A Calm 30.09 1019 7 11 0.00 0.00
8:56 am 08:56 Mostly Cloudy 76 24.4 76 24.4 100 100 Calm 30.10 1019 9 14 0.00 0.00
9:56 am 09:56 Partly Cloudy 78 25.6 78 25.6 100 100 VRB 3 6 30.12 1020 9 14 0.00 0.00
10:56 am 10:56 Partly Cloudy 79 26.1 79 26.1 100 100 WSW 7 11 30.14 1021 9 14 0.00 0.00
11:56 am 11:56 Mostly Cloudy 81 27.2 72 22.2 74 74 W 12 19 30.14 1021 10 16 0.00 0.00
12:56 pm 12:56 Mostly Sunny 86 30 71 21.7 61 61 W 14 22 30.11 1020 10 16 0.00 0.00
1:56 pm 13:56 Mostly Sunny 83 28.3 71 21.7 67 67 WNW 7 11 30.12 1020 10 16 0.01 0.25
2:56 pm 14:56 Sunny 86 30 71 21.7 61 61 W 10 17 30.10 1019 10 16 0.00 0.00
3:56 pm 15:56 Cloudy 85 29.4 74 23.3 70 70 S 3 6 30.09 1019 10 16 0.00 0.00
4:28 pm 16:28 Cloudy with Nearby Thunderstorms 84 29 75 24 74 74 SSE 6 9 30.05 1018 10 16 0.00 0.00
4:56 pm 16:56 Mostly Cloudy with Nearby Thunderstorms 82 27.8 76 24.4 82 82 SE 9 15 30.09 1019 10 16 0.00 0.00
5:56 pm 17:56 Mostly Cloudy with Nearby Thunderstorms 77 25 74 23.3 90 90 SSE 9 15 30.10 1019 10 16 0.00 0.00
6:21 pm 18:21 Cloudy 75 24 75 24 100 100 SSW 7 11 30.08 1019 10 16 0.00 0.00
6:56 pm 18:56 Sunny 77 25 75 23.9 94 94 VRB 3 6 30.09 1019 10 16 0.00 0.00
7:56 pm 19:56 Mostly Cloudy 76 24.4 76 24.4 100 100 SSW 3 6 30.09 1019 10 16 0.00 0.00
8:56 pm 20:56 Clear 73 23 N/A N/A Calm 30.08 1019 10 16 0.00 0.00
9:56 pm 21:56 Clear 72 22 N/A N/A Calm 30.10 1019 10 16 0.00 0.00
10:56 pm 22:56 Clear 68 20 N/A N/A E 5 7 30.11 1020 9 14 0.00 0.00
11:56 pm 23:56 Clear 70 21 N/A N/A SSE 3 6 30.13 1020 7 11 0.00 0.00

Powered by AerisWeather